Regional Weather Roundup
Issued by NWS

Home | Current Version | Previous Version | Graphics & Text | Print | Product List | Glossary On
Versions: 1 2 3 4 5 6 7 8 9 10 11 12 13 14 15 16 17 18 19 20 21 22 23 24 25 26 27 28 29 30 31 32 33 34 35 36 37 38 39 40 41 42 43 44 45 46 47 48 49 50
000
ASUS43 KBIS 041210
RWRND

NORTH DAKOTA REGIONAL WEATHER ROUNDUP
NATIONAL WEATHER SERVICE BISMARCK ND
700 AM CDT FRI SEP 04 2015

NOTE: "FAIR" INDICATES FEW OR NO CLOUDS BELOW 12,000 FEET WITH NO
SIGNIFICANT WEATHER AND/OR OBSTRUCTIONS TO VISIBILITY.


NDZ001>003-009>011-017-041300-
NORTHWEST NORTH DAKOTA

CITY           SKY/WX    TMP DP  RH WIND       PRES   REMARKS
WILLISTON      CLOUDY    63  52  67 NE14      29.76F
6HR MIN TEMP:  59; 6HR MAX TEMP:  70; 6HR PCP:  0.02;

MINOT          CLOUDY    69  67  93 NW10      29.79R
MINOT AFB      CLOUDY    69  68  99 N10G21    29.77R
$$

NDZ018>021-031>035-040>046-041300-
SOUTHWEST NORTH DAKOTA

CITY           SKY/WX    TMP DP  RH WIND       PRES   REMARKS
BISMARCK         N/A     71  70  96 NE8       29.73R
6HR MIN TEMP:  71; 6HR MAX TEMP:  79;

DICKINSON      CLOUDY    64  58  80 NE5       29.78R
GARRISON         N/A     67  63  87 N14G30    29.71F
6HR MIN TEMP:  66; 6HR MAX TEMP:  72;

HETTINGER ARPT CLOUDY    66  60  81 NW6       29.79R
$$

NDZ004>008-012>016-024-026-027-054-041300-
NORTHEAST NORTH DAKOTA

CITY           SKY/WX    TMP DP  RH WIND       PRES   REMARKS
GRAND FORKS    MOCLDY    73  70  90 SE12      29.76F
GRND FRKS AFB  CLOUDY    73  71  93 S13       29.77S
DEVILS LAKE    CLOUDY    73  66  78 SE8       29.75R
$$

NDZ022-023-025-028>030-036>039-047>053-041300-
SOUTHEAST NORTH DAKOTA

CITY           SKY/WX    TMP DP  RH WIND       PRES   REMARKS
FARGO          PTCLDY    74  71  91 E10       29.76S
6HR MIN TEMP:  74; 6HR MAX TEMP:  78;

JAMESTOWN      CLOUDY    74  72  93 SE13      29.75R FOG
$$




USA.gov is the U.S. government's official web portal to all federal, state and local government web resources and services.